TimeEDT,TemperatureF,Dew PointF,Humidity,Sea Level PressureIn,VisibilityMPH,Wind Direction,Wind SpeedMPH,Gust SpeedMPH,PrecipitationIn,Events,Conditions,WindDirDegrees,DateUTC
12:58 AM,64.0,62.1,93,29.97,10.0,NNE,9.2,-,N/A,,Clear,20,2013-09-27 04:58:00
1:58 AM,64.9,62.1,90,29.97,10.0,NNE,10.4,-,N/A,,Clear,20,2013-09-27 05:58:00
2:58 AM,64.0,62.1,93,29.97,10.0,NNE,8.1,-,N/A,,Clear,30,2013-09-27 06:58:00
3:58 AM,63.0,60.1,90,29.97,10.0,NNE,6.9,-,N/A,,Clear,20,2013-09-27 07:58:00
4:58 AM,64.0,61.0,90,29.97,10.0,NNE,10.4,-,N/A,,Clear,20,2013-09-27 08:58:00
5:58 AM,64.0,62.1,93,29.98,10.0,NNE,9.2,-,N/A,,Scattered Clouds,30,2013-09-27 09:58:00
6:58 AM,64.0,61.0,90,30.00,10.0,NNE,10.4,-,N/A,,Clear,20,2013-09-27 10:58:00
7:58 AM,64.9,62.1,90,30.03,10.0,NNE,12.7,-,N/A,,Scattered Clouds,20,2013-09-27 11:58:00
8:58 AM,68.0,62.1,81,30.05,10.0,NE,10.4,19.6,N/A,,Partly Cloudy,40,2013-09-27 12:58:00
9:58 AM,71.1,60.1,68,30.06,10.0,NE,15.0,25.3,N/A,,Clear,40,2013-09-27 13:58:00
10:58 AM,72.0,57.9,61,30.08,10.0,NE,16.1,27.6,N/A,,Clear,40,2013-09-27 14:58:00
11:58 AM,72.0,57.0,59,30.08,10.0,NE,15.0,26.5,N/A,,Clear,50,2013-09-27 15:58:00
12:58 PM,73.9,57.0,55,30.08,10.0,North,18.4,24.2,N/A,,Clear,10,2013-09-27 16:58:00
1:58 PM,73.9,54.0,50,30.06,10.0,NNE,15.0,21.9,N/A,,Clear,30,2013-09-27 17:58:00
2:58 PM,73.0,55.9,55,30.05,10.0,NNE,15.0,24.2,N/A,,Scattered Clouds,30,2013-09-27 18:58:00
3:58 PM,72.0,55.9,57,30.05,10.0,NNE,10.4,18.4,N/A,,Mostly Cloudy,30,2013-09-27 19:58:00
4:58 PM,71.1,55.9,59,30.06,10.0,NNE,15.0,21.9,N/A,,Partly Cloudy,30,2013-09-27 20:58:00
5:58 PM,70.0,57.0,63,30.07,10.0,NE,11.5,-,N/A,,Scattered Clouds,40,2013-09-27 21:58:00
6:58 PM,69.1,59.0,70,30.08,10.0,NE,13.8,19.6,N/A,,Mostly Cloudy,40,2013-09-27 22:58:00
7:58 PM,68.0,57.0,68,30.09,10.0,NNE,8.1,-,N/A,,Mostly Cloudy,30,2013-09-27 23:58:00
8:58 PM,68.0,59.0,73,30.10,10.0,NNE,12.7,-,N/A,,Overcast,30,2013-09-28 00:58:00
9:58 PM,68.0,57.9,70,30.11,10.0,NNE,13.8,20.7,N/A,,Overcast,20,2013-09-28 01:58:00
10:58 PM,66.9,57.9,73,30.11,10.0,NNE,12.7,19.6,N/A,,Mostly Cloudy,20,2013-09-28 02:58:00
11:58 PM,66.9,59.0,76,30.11,10.0,NNE,11.5,19.6,N/A,,Overcast,30,2013-09-28 03:58:00